Flag for U.S.A. Weather past 2 weeks in Lubbock, Texas, U.S.A.

Now
65 °F

Clear.


Feels Like: 65 °F
Forecast: 64 / 87 °F
Wind: 9 mph from Northeast

Location: Lubbock International Airport

Current Time: May 27, 2015 at 12:58:10 AM

Latest Report: May 26, 2015 at 11:53 PM


Visibility: 10 mi

Pressure: 29.88 "Hg

Humidity: 63%

Dew point: 52 °F

Location of LubbockLocation

Historic Weather in Lubbock — Graph

°F

Lubbock temperature yesterday

Maximum temperature yesterday: 85 °F (at 4:53 PM)
Minimum temperature yesterday: 55 °F (at 5:53 AM)
Average temperature yesterday: 70 °F

Past Weeks' High & Low Weather Summary

 TemperatureHumidityPressure
High85 °F (May 26, 4:53 PM)100% (May 13, 4:53 AM)30.28 "Hg (May 13, 4:53 AM)
Low47 °F (May 21, 5:53 AM)18% (May 16, 6:53 PM)29.60 "Hg (May 16, 3:53 PM)
Average64 °F70%29.90 "Hg
* Reported May 11 11:53 PM — May 26 11:53 PM, Lubbock, Weather by CustomWeather, © 2015

Note: Actual official high and low records may vary slightly from our data, if they occured in-between our weather recording intervals... More about our weather records

Advertising

Lubbock weather history for previous 24 hours

 ConditionsComfort  
Time TempWeatherWind HumidityBarometerVisibility
11:53 PM
Tue, May 26
65 °FClear.9 mph63%29.88 "Hg10 mi
10:53 PM66 °FPassing clouds.8 mph65%29.89 "Hg10 mi
9:53 PM71 °FPassing clouds.No wind45%29.85 "Hg10 mi
8:53 PM73 °FScattered clouds.7 mph41%29.84 "Hg10 mi
7:53 PM77 °FPartly sunny.8 mph35%29.83 "Hg10 mi
6:53 PM82 °FBroken clouds.12 mph25%29.83 "Hg10 mi
5:53 PM84 °FBroken clouds.15 mph24%29.83 "Hg10 mi
4:53 PM85 °FBroken clouds.17 mph25%29.83 "Hg10 mi
3:53 PM83 °FPartly sunny.21 mph26%29.84 "Hg10 mi
2:53 PM83 °FBroken clouds.21 mph28%29.85 "Hg10 mi
1:53 PM81 °FSunny.17 mph30%29.86 "Hg10 mi
12:53 PM79 °FPassing clouds.22 mph34%29.88 "Hg10 mi
11:53 AM77 °FPassing clouds.17 mph37%29.88 "Hg10 mi
10:53 AM73 °FPassing clouds.14 mph46%29.87 "Hg10 mi
9:53 AM70 °FPassing clouds.14 mph49%29.89 "Hg10 mi
8:53 AM65 °FPassing clouds.12 mph63%29.87 "Hg10 mi
7:53 AM59 °FScattered clouds.8 mph87%29.85 "Hg10 mi
6:53 AM56 °FPassing clouds.9 mph90%29.85 "Hg10 mi
5:53 AM55 °FPassing clouds.8 mph90%29.84 "Hg10 mi
4:53 AM58 °FPassing clouds.7 mph84%29.81 "Hg10 mi
3:53 AM58 °FPassing clouds.8 mph87%29.82 "Hg10 mi
2:53 AM58 °FPassing clouds.7 mph87%29.82 "Hg10 mi
1:53 AM60 °FPassing clouds.8 mph83%29.82 "Hg10 mi
12:53 AM58 °FPassing clouds.7 mph90%29.84 "Hg10 mi
Weather by CustomWeather, © 2015

See weather overviewHow to use our weather pages